Regional Weather Roundup
Issued by NWS New Orleans/Baton Rouge, LA

Home | Current Version | Previous Version | Graphics & Text | Print | Product List | Glossary On
Versions: 1 2 3 4 5 6 7 8 9 10 11 12 13 14 15 16 17 18 19 20 21 22 23 24 25 26 27 28 29 30 31 32 33 34 35 36 37 38 39 40 41 42 43 44 45 46 47 48 49 50
768
ASUS44 KLIX 010005
RWRLIX
NEW ORLEANS REGIONAL WEATHER ROUNDUP
NATIONAL WEATHER SERVICE NEW ORLEANS LA
700 PM CDT TUE SEP 30 2014

NOTE: "FAIR" INDICATES FEW OR NO CLOUDS BELOW 12,000 FEET WITH NO
      SIGNIFICANT WEATHER AND/OR OBSTRUCTIONS TO VISIBILITY.
      SKY/WX - SKY CONDITION AND SIGNIFICANT WEATHER.
      TMP - AIR TEMPERATURE.     DP    - DEWPOINT TEMPERATURE.
      RH  - RELATIVE HUMIDITY.   PRES  - PRESSURE.
      HI  - HEAT INDEX.          WCI   - WIND CHILL INDEX.

*  THESE STATIONS ARE NOT NWS OR FAA STATIONS AND ARE NOT UNDER
   NWS QUALITY CONTROL.

LAZ038-040-048-061>063-065>067-069-010100-
SOUTHEAST LOUISIANA

CITY           SKY/WX    TMP DP  RH WIND       PRES   REMARKS
N.O. AUDUBON     N/A     82  75  80 MISG        N/A
6HR MIN TEMP:  81; 6HR MAX TEMP:  91;

N.O. INTL ARPT PTCLDY    82  71  69 SE10      29.84R
6HR MIN TEMP:  82; 6HR MAX TEMP:  88;

N.O. LAKEFRONT CLEAR     80  71  74 E12       29.85R
6HR MIN TEMP:  80; 6HR MAX TEMP:  86;

N.O. DOWNTOWN*   N/A     81  70  69 SE7       29.85S
6HR MIN TEMP:  81; 6HR MAX TEMP:  90;

SLIDELL        CLEAR     79  71  76 SE5       29.85R
6HR MIN TEMP:  79; 6HR MAX TEMP:  87;

BATON ROUGE    CLEAR     82  70  66 E6        29.82S
6HR MIN TEMP:  82; 6HR MAX TEMP:  90;

BOOTHVILLE     CLEAR     79  74  84 E8        29.86R
6HR MIN TEMP:  79; 6HR MAX TEMP:  83; 6HR PCP: TRACE;

BELLE CHASSE   PTCLDY    79  72  79 SE7       29.84S
6HR MIN TEMP:  79; 6HR MAX TEMP:  87;

BOGALUSA*        N/A     80  71  72 S8        29.87R
6HR MIN TEMP:  80; 6HR MAX TEMP:  90;

GALLIANO*      NOT AVBL
NEW ROADS*       N/A     82  71  71 N5        29.82S
6HR MIN TEMP:  82; 6HR MAX TEMP:  89;

GONZALES*        N/A     82  75  78 CALM      29.83R
6HR MIN TEMP:  82; 6HR MAX TEMP:  88;

HAMMOND*       PTCLDY    81  70  69 SE6       29.86S
HOUMA*         PTCLDY   N/A N/A N/A E7        29.84R
PORT FOURCHON* PTCLDY    81  73  78 E9        29.88R

$$

MSZ070-080>082-010100-
SOUTHERN MISSISSIPPI

CITY           SKY/WX    TMP DP  RH WIND       PRES   REMARKS
MCCOMB         PTCLDY    81  67  62 SE3       29.85R
6HR MIN TEMP:  81; 6HR MAX TEMP:  88;

GULFPORT       PTCLDY    78  72  81 S3        29.86R
6HR MIN TEMP:  78; 6HR MAX TEMP:  83;

BILOXI         CLEAR     79  71  78 SE6       29.86R
6HR MIN TEMP:  79; 6HR MAX TEMP:  85;

PASCAGOULA     CLEAR     74  70  87 CALM      29.86R
6HR MIN TEMP:  74; 6HR MAX TEMP:  85;

STENNIS ARPT*  CLEAR     79  70  73 CALM      29.86R

$$

COASTAL OBSERVATIONS
LAKE AND NEARSHORE STATIONS

STATION/POSITION TIME  TEMP    WIND        PRES    WAVE
                       AIR SEA DIR/SP/G            HT/PER
                 (UTC) (F)     (DEG/KT/KT) (MB)    (FT/S)
PASCAGOULA       0000   81      60/  5/  6 1010.6
WAVELAND YACHT   0000   78     150/  8/ 10 1010.5
GRAND ISLE       0000   80 83  110/  8/ 12 1011.3
SOUTHWEST PASS   0000   81 86   90/ 12/ 14 1011.1
NEW CANAL        0000   81 78   90/  3/  6 1011.0
SHELL BEACH      0000   79 77  110/ 12/ 13 1010.8

OFFSHORE STATIONS

STATION/POSITION TIME  TEMP    WIND        PRES    WAVE
                       AIR SEA DIR/SP/G            HT/PER
                 (UTC) (F)     (DEG/KT/KT) (MB)    (FT/S)

$$




USA.gov is the U.S. government's official web portal to all federal, state and local government web resources and services.